User: anonymous   Login
Location: Iesi
(43.5167°N, 13.2333°E)
Time: 04:27:12
(UTC+00:00)
Language:

Cosmos 1802 Rocket - Orbit

View from above orbital plane
View from above orbital plane
View from above satellite
View from above satellite

Ground track
Ground track

The orbit data is extracted from the following two-line orbital elements,

1 17160U 86093B   20304.30606380 +.00000011 +00000-0 -39541-5 0  9996
2 17160 082.9297 230.9646 0038172 319.5766 211.2526 13.74636925701735
Epoch (UTC): 30 October 2020 07:20:43
Eccentricity: 0.0038172
inclination: 82.9297°
perigee height: 955 km
apogee height: 1011 km
right ascension of ascending node: 230.9646°
argument of perigee: 319.5766°
revolutions per day: 13.74636925
mean anomaly at epoch: 211.2526°
orbit number at epoch: 70173

The dashed part of the orbit path shows where the satellite is in the earth's shadow,  

DLR